Location: Krakow
(50.0830°N, 19.9170°E)
Time: 11:21:54
(UTC+02:00)

A-11 Canister half - Pass Details

Date: 22 March 2026
Orbit: 1523 x 1684 km, 47.3° (Epoch: 16 April)

Event Time Altitude Azimuth Distance (km) Brightness Sun altitude
Rises 12:41:09 0° 285° (WNW) 4,840 11.6 39.3°
Reaches altitude 10° 12:44:24 10° 281° (W) 3,830 11.3 39.2°
Maximum altitude 12:53:37 51° 209° (SSW) 1,901 11.6 38.7°
Drops below altitude 10° 13:02:33 10° 137° (SE) 3,709 11.4 38.1°
Sets 13:05:40 0° 133° (SE) 4,677 11.7 37.9°
